{"data":{"norad_id":66612,"intl_designator":"2025-270AA","name":"STARLINK-36039","alt_names":[],"object_type":"PAYLOAD","status":"ACTIVE","operator":null,"country":"US","launch_date":"2025-11-22","launch_site_code":"AFETR","launch_vehicle":null,"mission":null,"orbit_class":"UNKNOWN","rcs_meters":null,"size_class":null,"mass_kg":null,"dimensions":null,"purposes":["comms"],"wikipedia_slug":null,"has_3d_model":false,"image_url":null,"decayed_at":null,"tle_current":{"epoch":"2026-05-24T20:43:46.142400Z","epoch_age_seconds":80113,"freshness":"FRESH","line1":"1 66612U 25270AA  26144.86372850  .00012497  00000+0  46250-3 0  9995","line2":"2 66612  43.0023 346.1677 0001378 267.0996  92.9698 15.27607972 29355","mean_motion":15.27607972,"eccentricity":0.0001378,"inclination_deg":43.0023,"raan_deg":346.1677,"arg_perigee_deg":267.0996,"mean_anomaly_deg":92.9698,"bstar":0.0004625,"rev_number":2935,"period_min":94.265022597041,"perigee_km":482.01987918453,"apogee_km":483.91079898919,"semimajor_km":6861.1023390869,"source":"CELESTRAK","updated_at":"2026-05-25T13:38:21.292500Z"}}}